Regional Weather Roundup
Issued by NWS Albany, NY

Home | Current Version | Previous Version | Text Only | Print | Product List | Glossary On
Versions: 1 2 3 4 5 6 7 8 9 10 11 12 13 14 15 16 17 18 19 20 21 22 23 24 25 26 27 28 29 30 31 32 33 34 35 36 37 38 39 40 41 42 43 44 45 46 47 48 49 50
000
ASUS41 KALY 270010
RWRALY

NEW YORK STATE HOURLY WEATHER ROUNDUP
NATIONAL WEATHER SERVICE ALBANY NY
700 PM EST WED NOV 26 2014

NOTE: "FAIR" INDICATES FEW OR NO CLOUDS BELOW 12,000 FEET WITH NO
SIGNIFICANT WEATHER AND/OR NO OBSTRUCTIONS TO VISIBILITY.

NYZ032-033-038>043-046>054-057>066-NYZ062>081-270100-
EAST


CITY           SKY/WX    TMP DP  RH WIND       PRES   REMARKS
ALBANY         LGT SNOW  32  29  88 N15       29.94F VSB 1   WCI  22
GLENS FALLS    SNOW      31  29  92 N9        29.98F VSB 1/2 WCI  23
POUGHKEEPSIE   LGT SNOW  34  31  88 N14G20    29.85S FOG     WCI  25
NEWBURGH       LGT SNOW  32  32 100 N14G23    29.86R WCI  22
MONTGOMERY     LGT SNOW  33  32  96 N5        29.86R FOG     WCI  29
WHITE PLAINS   LGT RAIN  34  32  92 N20       29.76F FOG     WCI  23
ISLIP          LGT RAIN  38  34  85 N18G28    29.69R FOG     WCI  28
NEW YORK CITY  LGT SNOW  36  34  92 N21G31    29.77F FOG     WCI  25
CENTRAL PARK   CLOUDY    36  32  85 N9G21     29.80F FOG     WCI  29
$$

NYZ005>009-017-018-044>046-055-056-270100-
CENTRAL


CITY           SKY/WX    TMP DP  RH WIND       PRES   REMARKS
FULTON         LGT SNOW  29  25  85 NE12      30.06S FOG     WCI  19
SYRACUSE       LGT SNOW  31  29  92 N8        30.05S FOG     WCI  23
ROME           LGT SNOW  30  28  92 NW9       30.04S FOG     WCI  22
ELMIRA         LGT SNOW  32  29  88 NE5       30.00F FOG     WCI  27
BINGHAMTON     HAZE      43  27  53 N9        29.94R VSB 1
MONTICELLO     CLOUDY    30  28  93 NW9       29.88R WCI  22
$$

NYZ026>034-041>043-270100-
NORTH


CITY           SKY/WX    TMP DP  RH WIND       PRES   REMARKS
WATERTOWN      FLURRIES  30  22  72 NE10      30.09F WCI  21
FORT DRUM      NOT AVBL
MASSENA        CLOUDY    30  21  69 N7        30.12F WCI  23
SARANAC LAKE   LGT SNOW  25 N/A N/A N9        29.98F VSB 1   WCI  15
PLATTSBURGH    LGT SNOW  28  26  92 N12       30.08F VSB 1   WCI  18
$$

NYZ001>004-010>016-019>021-270100-
WEST


CITY           SKY/WX    TMP DP  RH WIND       PRES   REMARKS
NIAGARA FALLS  CLOUDY    31  27  85 NE9       30.07S WCI  23
BUFFALO        FLURRIES  31  27  85 NE12      30.06S WCI  22
DUNKIRK        CLOUDY    31  29  92 NE3       30.05F
JAMESTOWN      CLOUDY    28  25  86 N7        29.98F WCI  21
WELLSVILLE     LGT SNOW  28  25  88 N6        29.96F FOG     WCI  22
ROCHESTER      LGT SNOW  32  28  85 NE12      30.07F FOG     WCI  23
PENN YAN       LGT SNOW  30  28  92 N5        30.03S FOG     WCI  25
$$

             KEY
       WCI = WIND CHILL INDEX
       VSB = VISIBILITY
       HX  = HEAT INDEX
$$


USA.gov is the U.S. government's official web portal to all federal, state and local government web resources and services.